Regional Weather Roundup
Issued by NWS

Home | Current Version | Previous Version | Text Only | Print | Product List | Glossary Off
Versions: 1 2 3 4 5 6 7 8 9 10 11 12 13 14 15 16 17 18 19 20 21 22 23 24 25 26 27 28 29 30 31 32 33 34 35 36 37 38 39 40 41 42 43 44 45 46 47 48 49 50

000
ASUS45 KTFX 140310
RWRMT
MONTANA REGIONAL WEATHER ROUNDUP
NATIONAL WEATHER SERVICE GREAT FALLS MT
800 PM MST SAT FEB 13 2016

NOTE: "FAIR" INDICATES FEW OR NO CLOUDS BELOW 12000 FEET WITH NO
SIGNIFICANT WEATHER AND/OR OBSTRUCTIONS TO VISIBILITY.

MTZ001>007-043-140400-
WEST OF THE DIVIDE

CITY           SKY/WX    TMP DP  RH WIND       PRES   REMARKS
KALISPELL      CLOUDY    39  27  62 S13       30.07F WCI  31
MISSOULA       CLOUDY    39  26  59 CALM      30.13F
BUTTE          CLOUDY    31  17  56 S6        30.09F WCI  25
MULLAN PASS    LGT SNOW  24  22  91 VRB6G20   30.05S FOG     WCI  17
ANACONDA         N/A     34  16  47 E5        30.08F
DEER LODGE       N/A     30  25  80 NE3       30.09F
HAMILTON         N/A     39  21  48 S14       30.13F WCI  31
PLAINS           N/A     41  31  68 SE3       30.11F
$$

MTZ008-052>055-140400-
SOUTHWEST MONTANA

CITY           SKY/WX    TMP DP  RH WIND       PRES   REMARKS
BOZEMAN        CLOUDY    34  22  61 S7        30.11R WCI  28
DILLON         CLOUDY    33  20  58 S7        30.12F WCI  27
ENNIS          PTCLDY    34  16  47 S10       30.19S WCI  26
TWIN BRIDGES     N/A     33  20  59 E7        30.10F WCI  27
$$

MTZ009-010-012-014-046-048-049-054-140400-
EAST SLOPES AND CENTRAL MONTANA

CITY           SKY/WX    TMP DP  RH WIND       PRES   REMARKS
CUT BANK       MOCLDY    37  22  54 W24G33    29.92F WCI  26
GREAT FALLS    CLOUDY    38  22  52 SW14      29.99F WCI  30
MALMSTROM AFB  CLOUDY    39  22  50 SW22      29.99F WCI  29
HELENA         CLOUDY    41  21  44 S6        30.07F
CHOTEAU          N/A     41  18  38 W20G26    29.96F
CONRAD           N/A     34  25  70 SW5       29.98F
$$

MTZ011-013-016-021-045-047-050-051-140400-
NORTH CENTRAL MONTANA

CITY           SKY/WX    TMP DP  RH WIND       PRES   REMARKS
HAVRE          CLOUDY    37  30  75 SW9       29.94S WCI  30
LEWISTOWN      MOCLDY    35  23  61 SW10      29.98R WCI  27
N BAR RANCH      N/A     34  23  64 W14       29.97F WCI  24
CHINOOK          N/A     36  28  75 W7        29.93S WCI  30
$$

MTZ017>020-022>027-061-062-140400-
NORTHEAST MONTANA

CITY           SKY/WX    TMP DP  RH WIND       PRES   REMARKS
GLASGOW        CLEAR     35  30  82 NW17      29.87R WCI  25
JORDAN           N/A     34  30  85 NW9       29.90R WCI  27
SIDNEY         CLOUDY    36  28  75 NW20G28   29.80R WCI  25
WOLF POINT     CLOUDY    38  33  82 W10       29.85R WCI  31
PLENTYWOOD       N/A     27  23  86 NW21G29   29.78R WCI  13
POPLAR           N/A     34  30  86 NW9       29.84R WCI  26
$$

MTZ028>42-056>058-140400-
SOUTHCENTRAL AND SOUTHEAST MONTANA

CITY           SKY/WX    TMP DP  RH WIND       PRES   REMARKS
BAKER          CLOUDY    38  35  89 W16       29.84R WCI  29
BILLINGS       PTCLDY    40  17  39 W18       30.02R
LIVINGSTON     CLEAR     35  19  52 W14       30.05F WCI  26
MILES CITY     CLEAR     38  32  79 W17       29.90R WCI  28
EKALAKA          N/A     36  32  85 W17       29.84R WCI  26
FORSYTH          N/A     39  30  70 W10       29.95R
LAUREL           N/A     42  17  36 W10       30.01R
ROUNDUP          N/A     38  22  52 CALM      29.91S
$$

REGIONAL REPORTS...DAKOTAS

CITY           SKY/WX    TMP DP  RH WIND       PRES   REMARKS
WILLISTON      CLOUDY    24  20  84 CALM      29.78S
MINOT          LGT SNOW  17  11  77 SE10      29.82F WCI   5
DICKINSON      CLOUDY    35  31  85 W16G25    29.74F WCI  25
BEACH          CLOUDY    36  36 100 NW20G26   29.83R WCI  25
CROSBY         CLOUDY    19  19 100 S8        29.81R FOG     WCI   9
TIOGA          CLOUDY    18  18 100 CALM      29.81F FOG
BISMARCK       FLURRIES  18  12  77 SE14      29.89F WCI   4
GRAND FORKS    FLURRIES  13   2  61 SE21      30.12F WCI  -5
FARGO          CLOUDY    15   0  51 SE20G30   30.13F WCI  -2
BUFFALO SD       N/A     37  33  85 W20       29.76S WCI  27
RAPID CITY     CLOUDY    38  33  82 NW21      29.83F WCI  28
$$

REGIONAL REPORTS...WYOMING/IDAHO/WASHINGTON

CITY           SKY/WX    TMP DP  RH WIND       PRES   REMARKS
GILLETTE       PTCLDY    33  28  81 NW13      29.98R WCI  24
SHERIDAN       CLEAR     39  19  45 W13       30.00R WCI  32
BUFFALO WY     PTCLDY    38  16  40 NW16G24   30.01R WCI  29
CODY           CLEAR     39   9  28 SW3       30.06R
YELLOWSTONE LA   N/A     21  14  74 W7        30.16S WCI  12
IDAHO FALLS    CLOUDY    34  27  75 S8        30.24R WCI  27
SALMON         CLOUDY    34  25  69 CALM      30.17F
BOISE          CLOUDY    44  28  53 SE7       30.26S
SPOKANE        CLOUDY    38  34  85 S10       30.13F WCI  31
$$

REGIONAL REPORTS...ALBERTA

CITY           SKY/WX    TMP DP  RH WIND       PRES   REMARKS
EDMONTON       PTCLDY    34  25  69 SW8       29.72F WCI  27
CALGARY        MOCLDY    41  16  36 W8        29.79F
LETHBRIDGE     CLOUDY    37  27  65 SW18G25   29.87F WCI  27
MEDICINE HAT   CLEAR     30  28  93 SW7       29.87F WCI  23
WATERTON GATE    N/A     34  25  69 SW7         N/A  WCI  28
MILK RIVER       N/A     36  23  60 W16         N/A  WCI  26
$$

REGIONAL REPORTS...SASKATCHEWAN

CITY           SKY/WX    TMP DP  RH WIND       PRES   REMARKS
SWIFT CURRENT  LGT SNOW  28  28 100 W15G22    29.79F VSB 3/4 WCI  17
REGINA         FLURRIES  19  18  93 S3        29.78S
CYPRESS HILLS    N/A     28  27  93 NW6         N/A  WCI  22
VAL MARIE        N/A     30  28  93 W8          N/A  WCI  23
ROCKGLEN         N/A     28  28 100 NW22G29     N/A  WCI  15
ASSINIBOIA       N/A     28  25  86 SW12        N/A  WCI  18
$$



USA.gov is the U.S. government's official web portal to all federal, state and local government web resources and services.